Home   Weather   Barysaw   Past weeks

Flag for Belarus Past Weather in Barysaw, Belarus — Yesterday and Last 2 Weeks

Now
28 °F

Passing clouds.


Feels Like: 20 °F
Forecast: 26 / 36 °F
Wind: 8 mph from West

Location: Minsk

Current Time: Feb 25, 2017 at 11:40:00 pm

Latest Report: Feb 25, 2017 at 11:00 pm


Visibility: N/A

Pressure: 29.89 "Hg

Humidity: 74%

Dew Point: 21 °F

Location of BarysawLocation

Past Weather in Barysaw — Graph

°F

Barysaw Temperature Yesterday

Maximum temperature yesterday: 41 °F (at 12:00 pm)
Minimum temperature yesterday: 30 °F (at 8:30 pm)
Average temperature yesterday: 36 °F

High & Low Weather Summary for the Past Weeks

 TemperatureHumidityPressure
High41 °F (Feb 24, 12:00 pm)100% (Feb 11, 5:00 am)30.74 "Hg (Feb 11, 5:00 am)
Low14 °F (Feb 16, 3:30 am)56% (Feb 15, 4:00 pm)29.03 "Hg (Feb 24, 8:00 am)
Average30 °F91%29.95 "Hg
* Reported Feb 10 10:00 pm — Feb 25 10:00 pm, Barysaw, Weather by CustomWeather, © 2017

Note: Actual official high and low records may vary slightly from our data, if they occured in-between our weather recording intervals... More about our weather records

Advertising

Barysaw Weather History for the Previous 24 Hours

Scroll right to see more
 ConditionsComfort  
Time TempWeatherWind HumidityBarometerVisibility
10:00 pm
Sat, Feb 25
28 °FPassing clouds.8 mph80%29.86 "HgN/A
9:30 pm30 °FClear.10 mph69%29.83 "Hg10 mi
9:00 pm30 °FPassing clouds.8 mph69%29.83 "HgN/A
8:30 pm30 °FPartly cloudy.13 mph69%29.83 "HgN/A
8:00 pm30 °FPartly cloudy.13 mph69%29.80 "HgN/A
7:30 pm30 °FBroken clouds.8 mph69%29.80 "HgN/A
7:00 pm30 °FScattered clouds.10 mph69%29.77 "HgN/A
6:30 pm30 °FBroken clouds.8 mph80%29.77 "HgN/A
6:00 pm32 °FBroken clouds.13 mph69%29.74 "HgN/A
5:40 pm32 °FBroken clouds.13 mph69%29.74 "HgN/A
5:30 pm32 °FSnow flurries. Broken clouds.13 mph69%29.74 "HgN/A
5:13 pm30 °FSnow flurries. Broken clouds.10 mph80%29.74 "HgN/A
5:00 pm30 °FBroken clouds.13 mph80%29.74 "HgN/A
4:54 pm32 °FSnow flurries. Broken clouds.15 mph69%29.71 "Hg3 mi
4:30 pm32 °FBroken clouds.13 mph69%29.71 "HgN/A
4:00 pm32 °FBroken clouds.13 mph80%29.71 "HgN/A
3:30 pm32 °FBroken clouds.10 mph75%29.71 "HgN/A
3:00 pm32 °FBroken clouds.15 mph75%29.71 "HgN/A
2:30 pm32 °FBroken clouds.13 mph75%29.71 "HgN/A
2:00 pm32 °FBroken clouds.10 mph69%29.71 "HgN/A
1:30 pm32 °FBroken clouds.13 mph75%29.71 "HgN/A
1:00 pm32 °FSnow flurries. Broken clouds.13 mph69%29.71 "HgN/A
12:30 pm30 °FBroken clouds.13 mph86%29.71 "HgN/A
12:00 pm30 °FBroken clouds.13 mph86%29.71 "HgN/A
11:55 am28 °FSnow flurries. Broken clouds.13 mph93%29.71 "HgN/A
11:35 am28 °FSnow flurries. Partly sunny.10 mph93%29.71 "Hg2 mi
11:22 am28 °FSnow flurries. Partly sunny.10 mph93%29.71 "Hg3 mi
11:00 am28 °FSnow flurries. Broken clouds.13 mph93%29.71 "Hg1 mi
10:30 am28 °FPartly sunny.8 mph86%29.71 "HgN/A
10:06 am27 °FPartly sunny.13 mph86%29.68 "HgN/A
9:39 am27 °FPartly sunny.10 mph86%29.68 "HgN/A
9:00 am27 °FPassing clouds.10 mph86%29.65 "HgN/A
8:30 am27 °FPassing clouds.10 mph86%29.65 "HgN/A
8:24 am25 °FPassing clouds.10 mph93%29.65 "HgN/A
8:08 am25 °FPassing clouds.10 mph93%29.65 "HgN/A
7:30 am27 °FClear.10 mph86%29.65 "Hg10 mi
7:00 am27 °FClear.8 mph86%29.65 "Hg10 mi
6:30 am27 °FClear.8 mph86%29.65 "Hg10 mi
6:00 am27 °FPassing clouds.8 mph86%29.62 "HgN/A
5:30 am27 °FClear.6 mph86%29.62 "Hg10 mi
5:00 am27 °FClear.8 mph86%29.62 "Hg10 mi
4:30 am27 °FClear.8 mph86%29.62 "Hg10 mi
4:00 am27 °FClear.8 mph86%29.59 "Hg10 mi
3:30 am27 °FPassing clouds.8 mph86%29.59 "HgN/A
3:00 am27 °FPassing clouds.8 mph86%29.59 "HgN/A
2:30 am27 °FClear.8 mph86%29.56 "Hg10 mi
2:00 am27 °FClear.6 mph86%29.56 "Hg10 mi
1:30 am28 °FClear.6 mph74%29.53 "Hg10 mi
1:00 am28 °FClear.8 mph74%29.53 "Hg10 mi
12:30 am28 °FClear.15 mph74%29.50 "Hg10 mi
12:00 am28 °FMostly cloudy.15 mph74%29.47 "HgN/A
11:30 pm
Fri, Feb 24
30 °FMostly cloudy.15 mph80%29.45 "HgN/A
11:00 pm30 °FMostly cloudy.13 mph86%29.45 "HgN/A
Weather by CustomWeather, © 2017

See weather overviewHow to use our weather pages